K0SNA Weather Reports


Display with metric or nautical units.
time (UTC)temp
F
wind
direction
speed
MPH
gust
MPH
rain 1hr
in
rain 24hr
in
rain mn
in
humidity
%
barometer
mb
20260509233118 59 212 2.0 6.0 0.00 0.00 0.00 30 1011.5
20260509232614 59 302 4.0 5.0 0.00 0.00 0.00 30 1011.3
20260509232111 59 85 4.0 6.0 0.00 0.00 0.00 31 1011.3
20260509231608 59 331 4.0 11.0 0.00 0.00 0.00 29 1011.4
20260509231106 59 324 4.0 7.0 0.00 0.00 0.00 30 1011.3
20260509230602 59 334 7.0 10.0 0.00 0.00 0.00 30 1011.3
20260509230059 60 281 7.0 8.0 0.00 0.00 0.00 30 1011.0
20260509225555 59 341 6.0 7.0 0.00 0.00 0.00 30 1011.0
20260509225050 60 350 3.0 8.0 0.00 0.00 0.00 31 1011.1
20260509224546 60 261 2.0 5.0 0.00 0.00 0.00 30 1010.9
20260509224043 60 271 3.0 5.0 0.00 0.00 0.00 31 1010.9
20260509223540 60 347 4.0 9.0 0.00 0.00 0.00 29 1010.7
20260509223038 60 69 7.0 11.0 0.00 0.00 0.00 28 1010.7
20260509222533 60 340 4.0 8.0 0.00 0.00 0.00 29 1010.8
20260509222035 60 339 5.0 6.0 0.00 0.00 0.00 30 1010.8
20260509221526 61 345 9.0 10.0 0.00 0.00 0.00 29 1010.7
20260509221022 60 324 6.0 8.0 0.00 0.00 0.00 30 1010.6
20260509220518 61 31 5.0 7.0 0.00 0.00 0.00 29 1010.7
20260509220014 60 343 2.0 8.0 0.00 0.00 0.00 31 1010.5
20260509215509 61 337 6.0 9.0 0.00 0.00 0.00 30 1010.7
20260509215007 61 200 4.0 8.0 0.00 0.00 0.00 30 1010.7
20260509214504 61 305 5.0 7.0 0.00 0.00 0.00 29 1010.6
20260509214001 62 354 5.0 8.0 0.00 0.00 0.00 29 1010.5
20260509213457 60 347 4.0 8.0 0.00 0.00 0.00 30 1010.6
20260509212954 60 333 4.0 6.0 0.00 0.00 0.00 30 1010.3
20260509212451 59 330 5.0 14.0 0.00 0.00 0.00 30 1010.4
20260509211948 60 269 1.0 6.0 0.00 0.00 0.00 31 1010.4
20260509211443 60 80 5.0 9.0 0.00 0.00 0.00 31 1010.6
20260509210940 60 343 6.0 10.0 0.00 0.00 0.00 30 1010.5
20260509210437 61 325 3.0 8.0 0.00 0.00 0.00 29 1010.3
20260509205933 60 217 3.0 6.0 0.00 0.00 0.00 30 1010.3
20260509205427 61 46 5.0 9.0 0.00 0.00 0.00 30 1010.4
20260509204923 61 331 5.0 7.0 0.00 0.00 0.00 29 1010.4
20260509204420 61 228 2.0 7.0 0.00 0.00 0.00 29 1010.2
20260509203917 61 330 6.0 8.0 0.00 0.00 0.00 28 1010.2
20260509203413 60 320 5.0 10.0 0.00 0.00 0.00 28 1010.1
20260509202910 60 332 9.0 14.0 0.00 0.00 0.00 27 1010.3
20260509202406 60 319 5.0 11.0 0.00 0.00 0.00 31 1010.0
20260509201901 60 343 8.0 15.0 0.00 0.00 0.00 30 1010.0
20260509201356 60 50 3.0 6.0 0.00 0.00 0.00 31 1010.1
20260509200854 60 83 4.0 8.0 0.00 0.00 0.00 30 1009.9
20260509200348 59 28 2.0 8.0 0.00 0.00 0.00 31 1010.0
20260509195845 59 347 6.0 10.0 0.00 0.00 0.00 32 1010.1
20260509195340 59 330 7.0 11.0 0.00 0.00 0.00 31 1010.0
20260509194839 60 208 3.0 8.0 0.00 0.00 0.00 32 1010.2
20260509194336 60 354 9.0 10.0 0.00 0.00 0.00 31 1009.8
20260509193832 59 349 4.0 11.0 0.00 0.00 0.00 32 1009.9
20260509193327 59 347 7.0 10.0 0.00 0.00 0.00 31 1009.9
20260509192823 60 337 7.0 10.0 0.00 0.00 0.00 30 1009.7
20260509192319 60 53 6.0 9.0 0.00 0.00 0.00 32 1009.7
20260509191814 60 348 7.0 11.0 0.00 0.00 0.00 32 1009.7
20260509191311 59 244 3.0 7.0 0.00 0.00 0.00 34 1009.5
20260509190806 60 357 8.0 11.0 0.00 0.00 0.00 33 1009.8
20260509190304 59 121 2.0 8.0 0.00 0.00 0.00 37 1009.5
20260509185801 59 289 6.0 10.0 0.00 0.00 0.00 34 1009.5
20260509185257 59 341 7.0 11.0 0.00 0.00 0.00 33 1009.4
20260509184755 59 322 7.0 13.0 0.00 0.00 0.00 34 1009.5
20260509184252 60 329 5.0 7.0 0.00 0.00 0.00 32 1009.3
20260509183748 59 3 3.0 8.0 0.00 0.00 0.00 36 1009.3
20260509183244 58 291 6.0 8.0 0.00 0.00 0.00 36 1009.4
20260509182739 58 323 4.0 8.0 0.00 0.00 0.00 37 1009.4
20260509182237 58 39 6.0 13.0 0.00 0.00 0.00 35 1009.2
20260509181734 58 348 7.0 9.0 0.00 0.00 0.00 35 1009.2
20260509181232 58 307 8.0 9.0 0.00 0.00 0.00 35 1009.1
20260509180729 58 349 4.0 14.0 0.00 0.00 0.00 37 1009.2
20260509180225 57 249 5.0 9.0 0.00 0.00 0.00 37 1009.0
20260509175721 57 346 6.0 11.0 0.00 0.00 0.00 37 1009.2
20260509175218 57 341 8.0 13.0 0.00 0.00 0.00 38 1009.2
20260509174714 58 331 5.0 9.0 0.00 0.00 0.00 37 1009.1
20260509174209 57 305 5.0 8.0 0.00 0.00 0.00 39 1009.0
20260509173706 57 9 4.0 8.0 0.00 0.00 0.00 38 1009.0
20260509173201 57 270 2.0 8.0 0.00 0.00 0.00 39 1009.1
20260509172658 57 327 9.0 10.0 0.00 0.00 0.00 40 1009.1
20260509172154 56 350 6.0 14.0 0.00 0.00 0.00 41 1008.9
20260509171649 57 325 5.0 13.0 0.00 0.00 0.00 40 1009.0
20260509171146 58 50 6.0 8.0 0.00 0.00 0.00 40 1008.8
20260509170643 57 342 5.0 8.0 0.00 0.00 0.00 40 1008.8
20260509170139 57 275 7.0 16.0 0.00 0.00 0.00 38 1008.7
20260509165637 57 229 6.0 10.0 0.00 0.00 0.00 38 1008.8
20260509165133 57 311 5.0 10.0 0.00 0.00 0.00 40 1008.7
20260509164629 57 121 5.0 11.0 0.00 0.00 0.00 38 1008.7
20260509164125 58 320 9.0 13.0 0.00 0.00 0.00 36 1008.5
20260509163623 57 352 7.0 14.0 0.00 0.00 0.00 37 1008.6
20260509163118 57 248 4.0 11.0 0.00 0.00 0.00 41 1008.4
20260509162616 57 332 5.0 13.0 0.00 0.00 0.00 39 1008.6
20260509162112 57 323 3.0 11.0 0.00 0.00 0.00 40 1008.4
20260509161608 57 311 7.0 9.0 0.00 0.00 0.00 39 1008.4
20260509161109 57 22 3.0 11.0 0.00 0.00 0.00 40 1008.3
20260509160605 58 324 5.0 8.0 0.00 0.00 0.00 40 1008.2
20260509160100 57 306 5.0 13.0 0.00 0.00 0.00 42 1008.0
20260509155557 57 341 7.0 14.0 0.00 0.00 0.00 42 1008.1
20260509155053 57 354 6.0 10.0 0.00 0.00 0.00 43 1008.1
20260509154549 56 345 9.0 10.0 0.00 0.00 0.00 43 1008.1
20260509154047 56 305 3.0 9.0 0.00 0.00 0.00 43 1007.9
20260509153544 57 192 1.0 5.0 0.00 0.00 0.00 46 1007.6
20260509153040 56 331 4.0 10.0 0.00 0.00 0.00 45 1007.7
20260509152536 56 336 5.0 8.0 0.00 0.00 0.00 46 1007.9
20260509152034 56 335 5.0 10.0 0.00 0.00 0.00 46 1007.6
20260509151529 56 327 6.0 8.0 0.00 0.00 0.00 47 1007.6
20260509151027 55 329 5.0 7.0 0.00 0.00 0.00 47 1007.3
20260509150525 55 323 3.0 9.0 0.00 0.00 0.00 49 1007.5
20260509150023 54 341 5.0 9.0 0.00 0.00 0.00 51 1007.5
20260509145518 55 323 5.0 7.0 0.00 0.00 0.00 50 1007.4
20260509145013 55 192 3.0 6.0 0.00 0.00 0.00 54 1007.4
20260509144511 55 91 3.0 7.0 0.00 0.00 0.00 54 1007.4
20260509144008 54 150 2.0 8.0 0.00 0.00 0.00 55 1007.3
20260509143505 53 44 8.0 11.0 0.00 0.00 0.00 54 1007.2
20260509143004 52 344 5.0 8.0 0.00 0.00 0.00 57 1007.3
20260509142458 52 1 5.0 11.0 0.00 0.00 0.00 58 1007.2
20260509141954 53 309 6.0 10.0 0.00 0.00 0.00 58 1007.0
20260509141450 53 335 8.0 10.0 0.00 0.00 0.00 61 1007.1
20260509140948 52 321 7.0 9.0 0.00 0.00 0.00 64 1006.8
20260509140443 52 331 7.0 10.0 0.00 0.00 0.00 64 1006.7
20260509135942 53 326 6.0 7.0 0.00 0.00 0.00 66 1006.6
20260509135439 53 61 3.0 11.0 0.00 0.00 0.00 68 1006.3
20260509134936 52 343 4.0 7.0 0.00 0.00 0.00 70 1006.3
20260509134434 53 339 4.0 5.0 0.00 0.00 0.00 70 1006.4
20260509133931 52 31 3.0 7.0 0.00 0.00 0.00 71 1006.3
20260509133427 51 346 6.0 9.0 0.00 0.00 0.00 71 1006.3
20260509132926 51 27 5.0 6.0 0.00 0.00 0.00 71 1006.3
20260509132423 51 302 3.0 7.0 0.00 0.00 0.00 70 1006.3
20260509131920 52 13 2.0 6.0 0.00 0.00 0.00 70 1006.2
20260509131418 52 253 3.0 7.0 0.00 0.00 0.00 70 1005.8
20260509130914 53 333 4.0 6.0 0.00 0.00 0.00 69 1005.7
20260509130409 53 151 2.0 5.0 0.00 0.00 0.00 70 1005.8
20260509125907 52 203 2.0 3.0 0.00 0.00 0.00 72 1005.7
20260509125403 52 80 3.0 5.0 0.00 0.00 0.00 73 1005.7
20260509124859 51 325 3.0 10.0 0.00 0.00 0.00 73 1005.3
20260509124356 51 359 6.0 8.0 0.00 0.00 0.00 73 1005.4
20260509123854 51 330 4.0 5.0 0.00 0.00 0.00 73 1005.3
20260509123351 51 337 7.0 8.0 0.00 0.00 0.00 72 1005.4
20260509122847 51 340 5.0 10.0 0.00 0.00 0.00 73 1005.3
20260509122344 52 332 7.0 11.0 0.00 0.00 0.00 73 1005.3
20260509121841 52 317 5.0 8.0 0.00 0.00 0.00 74 1005.0
20260509121338 52 312 5.0 8.0 0.00 0.00 0.00 74 1004.9
20260509120836 52 340 6.0 10.0 0.00 0.00 0.00 74 1004.8
20260509120333 52 1 5.0 8.0 0.00 0.00 0.00 74 1004.8
20260509115831 52 301 3.0 7.0 0.00 0.00 0.00 74 1004.5
20260509115328 52 279 3.0 5.0 0.00 0.00 0.00 73 1004.3
20260509114826 52 319 3.0 3.0 0.00 0.00 0.00 73 1004.3
20260509114325 52 203 1.0 3.0 0.00 0.00 0.00 73 1004.3
20260509113824 52 212 1.0 2.0 0.00 0.00 0.00 73 1004.3
20260509113320 52 211 1.0 3.0 0.00 0.00 0.00 72 1004.1
20260509112817 52 207 0.0 2.0 0.00 0.00 0.00 72 1004.3
20260509112314 52 208 1.0 3.0 0.00 0.00 0.00 72 1004.1
20260509111811 52 213 1.0 2.0 0.00 0.00 0.00 72 1004.0
20260509111308 51 206 0.0 1.0 0.00 0.00 0.00 72 1003.8
20260509110805 52 227 2.0 2.0 0.00 0.00 0.00 72 1003.7
20260509110301 52 206 1.0 2.0 0.00 0.00 0.00 71 1003.7
20260509105800 52 207 1.0 1.0 0.00 0.00 0.00 71 1003.5
20260509105258 52 195 0.0 1.0 0.00 0.00 0.00 71 1003.5
20260509104754 52 192 0.0 0.0 0.00 0.00 0.00 69 1003.2
20260509104251 52 191 0.0 0.0 0.00 0.00 0.00 68 1003.5
20260509103749 52 203 0.0 1.0 0.00 0.00 0.00 67 1003.6
20260509103246 52 206 0.0 0.0 0.00 0.00 0.00 65 1003.5
20260509102744 52 206 0.0 1.0 0.00 0.00 0.00 66 1003.6
20260509102241 53 146 1.0 2.0 0.00 0.00 0.00 65 1003.2
20260509101737 53 202 0.0 2.0 0.00 0.00 0.00 62 1002.8
20260509101233 53 200 3.0 3.0 0.00 0.00 0.00 62 1003.3
20260509100731 53 187 0.0 0.0 0.00 0.00 0.00 60 1003.0
20260509100228 53 207 2.0 2.0 0.00 0.00 0.00 60 1003.3
20260509095725 53 203 0.0 1.0 0.00 0.00 0.00 59 1003.5
20260509095222 53 206 1.0 3.0 0.00 0.00 0.00 59 1003.7
20260509094719 53 343 3.0 5.0 0.00 0.00 0.00 58 1003.7
20260509094216 53 218 1.0 2.0 0.00 0.00 0.00 56 1003.8
20260509093714 53 192 0.0 1.0 0.00 0.00 0.00 56 1003.5
20260509093211 54 196 1.0 2.0 0.00 0.00 0.00 55 1003.6
20260509092709 54 212 1.0 3.0 0.00 0.00 0.00 55 1003.6
20260509092207 54 215 2.0 2.0 0.00 0.00 0.00 54 1003.7
20260509091705 54 241 2.0 2.0 0.00 0.00 0.00 53 1003.4
20260509091200 54 329 3.0 3.0 0.00 0.00 0.00 53 1003.5
20260509090658 54 325 4.0 5.0 0.00 0.00 0.00 52 1003.4
20260509090155 54 221 1.0 5.0 0.00 0.00 0.00 52 1003.2
20260509085653 54 150 1.0 2.0 0.00 0.00 0.00 51 1003.1
20260509085149 54 272 3.0 3.0 0.00 0.00 0.00 50 1003.2
20260509084646 54 181 1.0 5.0 0.00 0.00 0.00 50 1003.3
20260509084138 54 225 2.0 3.0 0.00 0.00 0.00 49 1003.3
20260509083635 54 100 2.0 7.0 0.00 0.00 0.00 49 1003.1
20260509083131 53 317 5.0 6.0 0.00 0.00 0.00 48 1003.3
20260509082629 53 250 2.0 2.0 0.00 0.00 0.00 48 1003.1
20260509082125 53 263 3.0 7.0 0.00 0.00 0.00 48 1003.1
20260509081622 53 214 1.0 2.0 0.00 0.00 0.00 49 1002.6
20260509081120 53 210 1.0 1.0 0.00 0.00 0.00 48 1002.3
20260509080618 53 209 0.0 0.0 0.00 0.00 0.00 48 1002.4
20260509080115 52 206 0.0 1.0 0.00 0.00 0.00 50 1002.3
20260509075613 52 212 0.0 0.0 0.00 0.00 0.00 49 1002.3
20260509075111 52 210 0.0 0.0 0.00 0.00 0.00 51 1002.2
20260509074607 52 209 0.0 0.0 0.00 0.00 0.00 50 1002.1
20260509074103 52 210 0.0 0.0 0.00 0.00 0.00 48 1002.1
20260509073601 52 210 0.0 0.0 0.00 0.00 0.00 48 1002.1
20260509073057 52 209 0.0 0.0 0.00 0.00 0.00 50 1002.2
20260509072553 51 206 0.0 0.0 0.00 0.00 0.00 51 1002.1
20260509072050 51 206 0.0 0.0 0.00 0.00 0.00 53 1002.2
20260509071547 51 213 1.0 2.0 0.00 0.00 0.00 51 1002.4
20260509071044 51 216 2.0 2.0 0.00 0.00 0.00 51 1002.4
20260509070541 50 211 1.0 2.0 0.00 0.00 0.00 54 1002.5
20260509070032 50 209 1.0 1.0 0.00 0.00 0.00 52 1002.4
20260509065527 51 209 1.0 1.0 0.00 0.00 0.00 51 1002.4
20260509065024 51 209 0.0 1.0 0.00 0.00 0.00 48 1002.7
20260509064521 50 210 1.0 1.0 0.00 0.00 0.00 50 1002.6
20260509064019 50 210 0.0 0.0 0.00 0.00 0.00 53 1002.6
20260509063514 51 211 1.0 1.0 0.00 0.00 0.00 51 1002.8
20260509063012 50 200 0.0 0.0 0.00 0.00 0.00 52 1002.7
20260509062509 50 199 0.0 0.0 0.00 0.00 0.00 52 1002.7
20260509062007 50 199 0.0 0.0 0.00 0.00 0.00 53 1002.7
20260509061504 50 199 0.0 0.0 0.00 0.00 0.00 54 1002.6
20260509061001 50 199 0.0 0.0 0.00 0.00 0.00 53 1002.8
20260509060458 51 199 0.0 0.0 0.00 0.00 0.00 50 1002.7
20260509055954 51 199 0.0 0.0 0.00 0.00 0.00 51 1002.7
20260509055449 51 199 0.0 0.0 0.00 0.00 0.00 49 1003.0
20260509054946 52 199 0.0 0.0 0.00 0.00 0.00 49 1003.1
20260509054442 53 205 1.0 1.0 0.00 0.00 0.00 48 1003.3
20260509053941 52 210 1.0 2.0 0.00 0.00 0.00 45 1003.3
20260509053438 53 209 0.0 1.0 0.00 0.00 0.00 45 1003.2
20260509052935 53 210 1.0 1.0 0.00 0.00 0.00 45 1003.2
20260509052433 54 205 0.0 1.0 0.00 0.00 0.00 45 1003.1
20260509051931 54 202 0.0 0.0 0.00 0.00 0.00 42 1003.2
20260509051428 54 202 0.0 0.0 0.00 0.00 0.00 43 1003.2
20260509050925 56 209 1.0 2.0 0.00 0.00 0.00 40 1003.5
20260509050422 56 203 0.0 0.0 0.00 0.00 0.00 39 1003.7
20260509045919 56 206 0.0 0.0 0.00 0.00 0.00 39 1003.3
20260509045416 56 206 0.0 0.0 0.00 0.00 0.00 39 1003.6
20260509044913 57 205 0.0 0.0 0.00 0.00 0.00 38 1003.6
20260509044410 57 206 0.0 0.0 0.00 0.00 0.00 37 1003.6
20260509043907 58 206 0.0 0.0 0.00 0.00 0.00 37 1003.5
20260509043403 58 206 0.0 1.0 0.00 0.00 0.00 36 1003.6
20260509042859 58 219 1.0 2.0 0.00 0.00 0.00 35 1003.5
20260509042355 59 210 1.0 1.0 0.00 0.00 0.00 34 1003.7
20260509041851 59 209 0.0 1.0 0.00 0.00 0.00 34 1003.8
20260509041343 59 222 2.0 3.0 0.00 0.00 0.00 33 1003.7
20260509040842 59 243 2.0 2.0 0.00 0.00 0.00 34 1003.8
20260509040339 60 211 1.0 2.0 0.00 0.00 0.00 33 1003.7
20260509035836 60 310 3.0 3.0 0.00 0.00 0.00 33 1003.6
20260509035333 60 232 1.0 6.0 0.00 0.00 0.00 32 1003.6
20260509034829 61 264 3.0 5.0 0.00 0.00 0.00 32 1003.6
20260509034327 61 258 2.0 5.0 0.00 0.00 0.00 32 1003.8
20260509033823 61 341 4.0 6.0 0.00 0.00 0.00 32 1003.8
20260509033321 61 244 2.0 5.0 0.00 0.00 0.00 32 1003.6
20260509032817 62 299 3.0 7.0 0.00 0.00 0.00 32 1003.7
20260509032315 62 328 3.0 9.0 0.00 0.00 0.00 31 1003.6
20260509031813 62 298 4.0 8.0 0.00 0.00 0.00 32 1003.5
20260509031310 62 335 3.0 5.0 0.00 0.00 0.00 33 1003.7
20260509030807 62 350 4.0 8.0 0.00 0.00 0.00 32 1003.4
20260509030305 62 272 4.0 6.0 0.00 0.00 0.00 32 1003.4
20260509025801 63 321 4.0 5.0 0.00 0.00 0.00 33 1003.3
20260509025257 63 313 3.0 6.0 0.00 0.00 0.00 33 1003.2
20260509024752 63 291 6.0 6.0 0.00 0.00 0.00 33 1003.3
20260509024249 64 313 4.0 7.0 0.00 0.00 0.00 32 1003.3
20260509023746 64 260 3.0 9.0 0.00 0.00 0.00 32 1003.2
20260509023243 64 323 4.0 8.0 0.00 0.00 0.00 32 1003.0
20260509022739 64 314 3.0 6.0 0.00 0.00 0.00 32 1002.8
20260509022237 64 201 3.0 6.0 0.00 0.00 0.00 32 1003.0
20260509021734 64 330 3.0 3.0 0.00 0.00 0.00 32 1003.0
20260509021231 65 201 3.0 5.0 0.00 0.00 0.00 31 1002.6
20260509020729 65 345 3.0 7.0 0.00 0.00 0.00 31 1002.6
20260509020226 65 353 2.0 5.0 0.00 0.00 0.00 30 1002.4
20260509015724 65 327 5.0 6.0 0.00 0.00 0.00 30 1002.4
20260509015222 65 303 3.0 3.0 0.00 0.00 0.00 29 1002.3
20260509014718 66 324 3.0 5.0 0.00 0.00 0.00 29 1002.2
20260509014215 66 304 4.0 5.0 0.00 0.00 0.00 28 1002.1
20260509013712 66 285 3.0 7.0 0.00 0.00 0.00 28 1002.1
20260509013207 66 289 4.0 8.0 0.00 0.00 0.00 27 1001.9
20260509012704 66 354 5.0 7.0 0.00 0.00 0.00 27 1002.1
20260509012201 66 208 1.0 5.0 0.00 0.00 0.00 27 1001.9
20260509011659 67 222 2.0 6.0 0.00 0.00 0.00 27 1001.9
20260509011156 68 260 2.0 5.0 0.00 0.00 0.00 26 1001.7
20260509010654 68 348 4.0 6.0 0.00 0.00 0.00 26 1001.7
20260509010149 68 265 3.0 3.0 0.00 0.00 0.00 26 1001.8
20260509005647 68 321 4.0 6.0 0.00 0.00 0.00 26 1001.9
20260509005144 68 207 3.0 5.0 0.00 0.00 0.00 26 1001.7
20260509004639 68 263 6.0 8.0 0.00 0.00 0.00 26 1001.6
20260509004137 69 319 6.0 10.0 0.00 0.00 0.00 26 1001.6
20260509003635 69 287 3.0 5.0 0.00 0.00 0.00 26 1001.7
20260509003132 69 341 3.0 6.0 0.00 0.00 0.00 26 1001.4
20260509002629 69 341 3.0 11.0 0.00 0.00 0.00 26 1001.7
20260509002126 69 335 5.0 8.0 0.00 0.00 0.00 26 1001.7
20260509001624 69 331 5.0 8.0 0.00 0.00 0.00 26 1001.7
20260509001119 70 333 4.0 7.0 0.00 0.00 0.00 26 1001.7
20260509000618 70 14 5.0 9.0 0.00 0.00 0.00 25 1001.7
20260509000114 70 258 3.0 7.0 0.00 0.00 0.00 26 1001.4
20260508235612 70 340 5.0 7.0 0.00 0.00 0.00 25 1001.4
20260508235108 71 297 7.0 9.0 0.00 0.00 0.00 26 1001.6
20260508234606 71 297 5.0 8.0 0.00 0.00 0.00 26 1001.6
20260508234102 71 322 3.0 8.0 0.00 0.00 0.00 27 1001.6
20260508233602 71 335 4.0 9.0 0.00 0.00 0.00 27 1001.7